| time (UTC) | temp F | wind direction | speed MPH | gust MPH | rain 1hr in | rain 24hr in | rain mn in | humidity % | barometer mb |
| 20260831223554 | 63 | 219 | 5.0 | 15.0 | 0.00 | 0.00 | 0.00 | 83 | 1014.2 |
| 20260831223107 | 63 | 243 | 5.0 | 15.0 | 0.00 | 0.00 | 0.00 | 84 | 1014.3 |
| 20260831222552 | 63 | 206 | 5.0 | 11.0 | 0.00 | 0.00 | 0.00 | 83 | 1014.3 |
| 20260831222054 | 63 | 282 | 3.0 | 11.0 | 0.00 | 0.00 | 0.00 | 83 | 1014.3 |
| 20260831221605 | 63 | 247 | 4.0 | 11.0 | 0.00 | 0.00 | 0.00 | 83 | 1014.3 |
| 20260831221053 | 63 | 279 | 4.0 | 11.0 | 0.00 | 0.00 | 0.00 | 83 | 1014.4 |
| 20260831220553 | 63 | 239 | 5.0 | 12.0 | 0.00 | 0.00 | 0.00 | 83 | 1014.4 |
| 20260831220105 | 63 | 259 | 5.0 | 12.0 | 0.00 | 0.00 | 0.00 | 83 | 1014.5 |
| 20260831215555 | 63 | 230 | 3.0 | 13.0 | 0.00 | 0.00 | 0.00 | 83 | 1014.5 |
| 20260831215055 | 63 | 199 | 3.0 | 13.0 | 0.00 | 0.00 | 0.00 | 84 | 1014.6 |
| 20260831214616 | 63 | 213 | 3.0 | 14.0 | 0.00 | 0.00 | 0.00 | 83 | 1014.6 |
| 20260831214055 | 63 | 212 | 3.0 | 14.0 | 0.00 | 0.00 | 0.00 | 83 | 1014.7 |
| 20260831213555 | 63 | 215 | 3.0 | 10.0 | 0.00 | 0.00 | 0.00 | 83 | 1014.7 |
| 20260831213104 | 63 | 263 | 5.0 | 10.0 | 0.00 | 0.00 | 0.00 | 83 | 1014.7 |
| 20260831212558 | 63 | 198 | 3.0 | 12.0 | 0.00 | 0.00 | 0.00 | 83 | 1014.9 |
| 20260831212053 | 63 | 220 | 4.0 | 12.0 | 0.00 | 0.00 | 0.00 | 84 | 1014.9 |
| 20260831211607 | 62 | 195 | 3.0 | 12.0 | 0.00 | 0.00 | 0.00 | 84 | 1014.9 |
| 20260831211052 | 62 | 277 | 4.0 | 11.0 | 0.00 | 0.00 | 0.00 | 84 | 1014.9 |
| 20260831210552 | 62 | 233 | 4.0 | 10.0 | 0.00 | 0.00 | 0.00 | 84 | 1015.0 |
| 20260831205552 | 61 | 237 | 3.0 | 10.0 | 0.00 | 0.00 | 0.00 | 86 | 1015.0 |
| 20260831205055 | 61 | 222 | 4.0 | 12.0 | 0.00 | 0.00 | 0.00 | 86 | 1015.1 |
| 20260831204608 | 61 | 232 | 4.0 | 12.0 | 0.00 | 0.00 | 0.00 | 86 | 1015.1 |
| 20260831204056 | 61 | 257 | 5.0 | 13.0 | 0.00 | 0.00 | 0.00 | 86 | 1015.0 |
| 20260831203557 | 61 | 271 | 4.0 | 13.0 | 0.00 | 0.00 | 0.00 | 86 | 1015.0 |
| 20260831203103 | 61 | 360 | 3.0 | 13.0 | 0.00 | 0.00 | 0.00 | 86 | 1015.0 |
| 20260831202638 | 61 | 277 | 3.0 | 13.0 | 0.00 | 0.00 | 0.00 | 86 | 1015.0 |
| 20260831202056 | 61 | 253 | 3.0 | 10.0 | 0.00 | 0.00 | 0.00 | 86 | 1015.0 |
| 20260831201623 | 61 | 227 | 3.0 | 10.0 | 0.00 | 0.00 | 0.00 | 86 | 1015.0 |
| 20260831201057 | 61 | 250 | 3.0 | 10.0 | 0.00 | 0.00 | 0.00 | 86 | 1015.0 |
| 20260831200558 | 61 | 214 | 5.0 | 10.0 | 0.00 | 0.00 | 0.00 | 86 | 1014.9 |
| 20260831200123 | 61 | 0 | 3.0 | 9.0 | 0.00 | 0.00 | 0.00 | 86 | 1014.9 |
| 20260831195555 | 61 | 279 | 2.0 | 9.0 | 0.00 | 0.00 | 0.00 | 86 | 1014.9 |
| 20260831195057 | 61 | 264 | 4.0 | 9.0 | 0.00 | 0.00 | 0.00 | 85 | 1014.9 |
| 20260831194624 | 61 | 209 | 4.0 | 9.0 | 0.00 | 0.00 | 0.00 | 84 | 1015.0 |
| 20260831194056 | 61 | 237 | 3.0 | 10.0 | 0.00 | 0.00 | 0.00 | 85 | 1015.1 |
| 20260831193557 | 61 | 217 | 3.0 | 10.0 | 0.00 | 0.00 | 0.00 | 84 | 1015.0 |
| 20260831193137 | 61 | 240 | 2.0 | 11.0 | 0.00 | 0.00 | 0.00 | 84 | 1015.1 |
| 20260831192555 | 61 | 196 | 2.0 | 11.0 | 0.00 | 0.00 | 0.00 | 84 | 1015.0 |
| 20260831192059 | 61 | 0 | 3.0 | 9.0 | 0.00 | 0.00 | 0.00 | 85 | 1015.1 |
| 20260831191611 | 61 | 221 | 1.0 | 10.0 | 0.00 | 0.00 | 0.00 | 85 | 1015.2 |
| 20260831191055 | 61 | 233 | 5.0 | 10.0 | 0.00 | 0.00 | 0.00 | 84 | 1015.1 |
| 20260831190559 | 61 | 270 | 3.0 | 11.0 | 0.00 | 0.00 | 0.00 | 84 | 1015.2 |
| 20260831190106 | 60 | 237 | 4.0 | 12.0 | 0.00 | 0.00 | 0.00 | 85 | 1015.2 |
| 20260831185555 | 60 | 360 | 4.0 | 12.0 | 0.00 | 0.00 | 0.00 | 85 | 1015.2 |
| 20260831185056 | 60 | 360 | 4.0 | 10.0 | 0.00 | 0.00 | 0.00 | 85 | 1015.3 |
| 20260831184604 | 60 | 204 | 3.0 | 14.0 | 0.00 | 0.00 | 0.00 | 84 | 1015.3 |
| 20260831184056 | 60 | 360 | 4.0 | 14.0 | 0.00 | 0.00 | 0.00 | 85 | 1015.2 |
| 20260831183555 | 60 | 360 | 4.0 | 14.0 | 0.00 | 0.00 | 0.00 | 85 | 1015.1 |
| 20260831183107 | 60 | 231 | 4.0 | 12.0 | 0.00 | 0.00 | 0.00 | 85 | 1015.1 |
| 20260831182555 | 60 | 238 | 3.0 | 12.0 | 0.00 | 0.00 | 0.00 | 86 | 1015.2 |
| 20260831182057 | 60 | 213 | 3.0 | 12.0 | 0.00 | 0.00 | 0.00 | 86 | 1015.2 |
| 20260831181614 | 60 | 223 | 2.0 | 9.0 | 0.00 | 0.00 | 0.00 | 87 | 1015.2 |
| 20260831181054 | 60 | 360 | 2.0 | 11.0 | 0.00 | 0.00 | 0.00 | 87 | 1015.1 |
| 20260831180554 | 59 | 225 | 3.0 | 11.0 | 0.00 | 0.00 | 0.00 | 86 | 1015.1 |
| 20260831180109 | 59 | 242 | 4.0 | 10.0 | 0.00 | 0.00 | 0.00 | 87 | 1015.1 |
| 20260831175556 | 59 | 213 | 3.0 | 10.0 | 0.00 | 0.00 | 0.00 | 87 | 1015.2 |
| 20260831175056 | 59 | 198 | 3.0 | 10.0 | 0.00 | 0.00 | 0.00 | 87 | 1015.3 |
| 20260831174606 | 59 | 240 | 4.0 | 10.0 | 0.00 | 0.00 | 0.00 | 87 | 1015.2 |
| 20260831174055 | 59 | 242 | 3.0 | 10.0 | 0.00 | 0.00 | 0.00 | 88 | 1015.1 |
| 20260831173556 | 59 | 216 | 1.0 | 11.0 | 0.00 | 0.00 | 0.00 | 88 | 1015.2 |
| 20260831173111 | 59 | 238 | 4.0 | 11.0 | 0.00 | 0.00 | 0.00 | 88 | 1015.2 |
| 20260831172557 | 58 | 192 | 2.0 | 11.0 | 0.00 | 0.00 | 0.00 | 89 | 1015.2 |
| 20260831172055 | 58 | 211 | 3.0 | 11.0 | 0.00 | 0.00 | 0.00 | 89 | 1015.2 |
| 20260831171604 | 58 | 360 | 3.0 | 9.0 | 0.00 | 0.00 | 0.00 | 89 | 1015.2 |
| 20260831171055 | 58 | 248 | 2.0 | 13.0 | 0.00 | 0.00 | 0.00 | 90 | 1015.0 |
| 20260831170557 | 58 | 266 | 2.0 | 13.0 | 0.00 | 0.00 | 0.00 | 90 | 1015.1 |
| 20260831170107 | 58 | 223 | 5.0 | 13.0 | 0.00 | 0.00 | 0.00 | 90 | 1015.0 |
| 20260831165556 | 58 | 360 | 5.0 | 11.0 | 0.00 | 0.00 | 0.00 | 90 | 1014.9 |
| 20260831165057 | 58 | 271 | 2.0 | 10.0 | 0.00 | 0.00 | 0.00 | 89 | 1014.9 |
| 20260831164613 | 59 | 212 | 3.0 | 8.0 | 0.00 | 0.00 | 0.00 | 89 | 1014.7 |
| 20260831164055 | 59 | 207 | 3.0 | 8.0 | 0.00 | 0.00 | 0.00 | 89 | 1014.7 |
| 20260831163555 | 59 | 360 | 2.0 | 10.0 | 0.00 | 0.00 | 0.00 | 89 | 1014.7 |
| 20260831163106 | 58 | 0 | 2.0 | 10.0 | 0.00 | 0.00 | 0.00 | 90 | 1014.6 |
| 20260831162556 | 58 | 213 | 2.0 | 10.0 | 0.00 | 0.00 | 0.00 | 90 | 1014.6 |
| 20260831162057 | 58 | 229 | 2.0 | 9.0 | 0.00 | 0.00 | 0.00 | 90 | 1014.4 |
| 20260831161612 | 58 | 188 | 3.0 | 9.0 | 0.00 | 0.00 | 0.00 | 90 | 1014.4 |
| 20260831161055 | 58 | 234 | 4.0 | 9.0 | 0.00 | 0.00 | 0.00 | 90 | 1014.4 |
| 20260831160555 | 58 | 218 | 2.0 | 8.0 | 0.00 | 0.00 | 0.00 | 91 | 1014.4 |
| 20260831160111 | 58 | 246 | 3.0 | 9.0 | 0.00 | 0.00 | 0.00 | 91 | 1014.4 |
| 20260831155555 | 58 | 192 | 3.0 | 9.0 | 0.00 | 0.00 | 0.00 | 91 | 1014.4 |
| 20260831155055 | 58 | 360 | 3.0 | 10.0 | 0.00 | 0.00 | 0.00 | 91 | 1014.4 |
| 20260831154631 | 58 | 242 | 3.0 | 10.0 | 0.00 | 0.00 | 0.00 | 91 | 1014.4 |
| 20260831154056 | 58 | 246 | 3.0 | 10.0 | 0.00 | 0.00 | 0.00 | 91 | 1014.5 |
| 20260831153556 | 58 | 238 | 1.0 | 7.0 | 0.00 | 0.00 | 0.00 | 91 | 1014.5 |
| 20260831153108 | 58 | 209 | 3.0 | 9.0 | 0.00 | 0.00 | 0.00 | 91 | 1014.4 |
| 20260831152555 | 58 | 253 | 1.0 | 9.0 | 0.00 | 0.00 | 0.00 | 90 | 1014.3 |
| 20260831152056 | 58 | 186 | 2.0 | 10.0 | 0.00 | 0.00 | 0.00 | 90 | 1014.3 |
| 20260831151607 | 57 | 261 | 3.0 | 11.0 | 0.00 | 0.00 | 0.00 | 90 | 1014.3 |
| 20260831151056 | 57 | 228 | 4.0 | 11.0 | 0.00 | 0.00 | 0.00 | 90 | 1014.3 |
| 20260831150556 | 57 | 172 | 4.0 | 10.0 | 0.00 | 0.00 | 0.00 | 90 | 1014.3 |
| 20260831150108 | 57 | 360 | 3.0 | 10.0 | 0.00 | 0.00 | 0.00 | 91 | 1014.3 |
| 20260831145555 | 57 | 214 | 2.0 | 8.0 | 0.00 | 0.00 | 0.00 | 91 | 1014.2 |
| 20260831145055 | 57 | 226 | 1.0 | 8.0 | 0.00 | 0.00 | 0.00 | 91 | 1014.1 |
| 20260831144604 | 57 | 360 | 3.0 | 8.0 | 0.00 | 0.00 | 0.00 | 91 | 1014.2 |
| 20260831144056 | 57 | 245 | 3.0 | 8.0 | 0.00 | 0.00 | 0.00 | 91 | 1014.1 |
| 20260831143556 | 57 | 236 | 3.0 | 8.0 | 0.00 | 0.00 | 0.00 | 91 | 1014.0 |
| 20260831143107 | 57 | 226 | 3.0 | 8.0 | 0.00 | 0.00 | 0.00 | 91 | 1014.1 |
| 20260831142557 | 57 | 207 | 3.0 | 7.0 | 0.00 | 0.00 | 0.00 | 90 | 1014.0 |
| 20260831142056 | 57 | 232 | 2.0 | 7.0 | 0.00 | 0.00 | 0.00 | 91 | 1013.9 |
| 20260831141606 | 57 | 204 | 0.0 | 7.0 | 0.00 | 0.00 | 0.00 | 90 | 1013.8 |
| 20260831141054 | 57 | 219 | 2.0 | 7.0 | 0.00 | 0.00 | 0.00 | 90 | 1013.7 |
| 20260831140555 | 57 | 176 | 2.0 | 10.0 | 0.00 | 0.00 | 0.00 | 90 | 1013.6 |
| 20260831140107 | 57 | 216 | 2.0 | 10.0 | 0.00 | 0.00 | 0.00 | 90 | 1013.6 |
| 20260831135553 | 57 | 227 | 3.0 | 10.0 | 0.00 | 0.00 | 0.00 | 90 | 1013.7 |
| 20260831135053 | 57 | 248 | 4.0 | 10.0 | 0.00 | 0.00 | 0.00 | 90 | 1013.6 |
| 20260831134607 | 57 | 196 | 3.0 | 10.0 | 0.00 | 0.00 | 0.00 | 90 | 1013.6 |
| 20260831134054 | 57 | 205 | 3.0 | 10.0 | 0.00 | 0.00 | 0.00 | 90 | 1013.6 |
| 20260831133556 | 58 | 196 | 3.0 | 11.0 | 0.00 | 0.00 | 0.00 | 90 | 1013.4 |
| 20260831133108 | 57 | 216 | 2.0 | 11.0 | 0.00 | 0.00 | 0.00 | 90 | 1013.4 |
| 20260831132553 | 58 | 257 | 3.0 | 9.0 | 0.00 | 0.00 | 0.00 | 89 | 1013.4 |
| 20260831132052 | 58 | 235 | 1.0 | 8.0 | 0.00 | 0.00 | 0.00 | 89 | 1013.4 |
| 20260831131604 | 58 | 239 | 2.0 | 11.0 | 0.00 | 0.00 | 0.00 | 89 | 1013.5 |
| 20260831131051 | 58 | 197 | 3.0 | 11.0 | 0.00 | 0.00 | 0.00 | 89 | 1013.5 |
| 20260831130554 | 58 | 211 | 4.0 | 11.0 | 0.00 | 0.00 | 0.00 | 89 | 1013.4 |
| 20260831130111 | 58 | 194 | 1.0 | 8.0 | 0.00 | 0.00 | 0.00 | 89 | 1013.4 |
| 20260831125553 | 58 | 250 | 2.0 | 10.0 | 0.00 | 0.00 | 0.00 | 89 | 1013.3 |
| 20260831125055 | 58 | 214 | 4.0 | 10.0 | 0.00 | 0.00 | 0.00 | 89 | 1013.3 |
| 20260831124616 | 58 | 239 | 4.0 | 10.0 | 0.00 | 0.00 | 0.00 | 89 | 1013.3 |
| 20260831124056 | 58 | 215 | 2.0 | 8.0 | 0.00 | 0.00 | 0.00 | 89 | 1013.3 |
| 20260831123552 | 58 | 231 | 2.0 | 8.0 | 0.00 | 0.00 | 0.00 | 89 | 1013.3 |
| 20260831123106 | 58 | 220 | 2.0 | 7.0 | 0.00 | 0.00 | 0.00 | 89 | 1013.3 |
| 20260831122552 | 58 | 214 | 1.0 | 7.0 | 0.00 | 0.00 | 0.00 | 89 | 1013.3 |
| 20260831122055 | 58 | 232 | 2.0 | 12.0 | 0.00 | 0.00 | 0.00 | 89 | 1013.3 |
| 20260831121600 | 58 | 188 | 4.0 | 12.0 | 0.00 | 0.00 | 0.00 | 89 | 1013.3 |
| 20260831121056 | 57 | 167 | 2.0 | 13.0 | 0.00 | 0.00 | 0.00 | 89 | 1013.2 |
| 20260831120554 | 57 | 188 | 4.0 | 13.0 | 0.00 | 0.00 | 0.00 | 88 | 1013.2 |
| 20260831120107 | 57 | 0 | 3.0 | 10.0 | 0.00 | 0.00 | 0.00 | 89 | 1013.2 |
| 20260831115554 | 58 | 264 | 3.0 | 9.0 | 0.00 | 0.00 | 0.00 | 89 | 1013.1 |
| 20260831115054 | 57 | 360 | 3.0 | 8.0 | 0.00 | 0.00 | 0.00 | 89 | 1013.1 |
| 20260831114607 | 58 | 221 | 2.0 | 8.0 | 0.00 | 0.00 | 0.00 | 89 | 1013.1 |
| 20260831114058 | 58 | 241 | 2.0 | 7.0 | 0.00 | 0.00 | 0.00 | 89 | 1013.0 |
| 20260831113555 | 58 | 214 | 2.0 | 9.0 | 0.00 | 0.00 | 0.00 | 89 | 1013.1 |
| 20260831113105 | 58 | 217 | 3.0 | 9.0 | 0.00 | 0.00 | 0.00 | 89 | 1013.0 |
| 20260831112555 | 58 | 223 | 3.0 | 7.0 | 0.00 | 0.00 | 0.00 | 89 | 1013.1 |
| 20260831112054 | 58 | 234 | 3.0 | 7.0 | 0.00 | 0.00 | 0.00 | 89 | 1013.0 |
| 20260831111607 | 58 | 160 | 2.0 | 7.0 | 0.00 | 0.00 | 0.00 | 89 | 1013.1 |
| 20260831111052 | 58 | 170 | 3.0 | 9.0 | 0.00 | 0.00 | 0.00 | 89 | 1013.1 |
| 20260831110555 | 58 | 184 | 2.0 | 9.0 | 0.00 | 0.00 | 0.00 | 89 | 1013.1 |
| 20260831110110 | 58 | 239 | 2.0 | 9.0 | 0.00 | 0.00 | 0.00 | 89 | 1013.2 |
| 20260831105556 | 58 | 235 | 3.0 | 9.0 | 0.00 | 0.00 | 0.00 | 89 | 1013.0 |
| 20260831105055 | 58 | 202 | 3.0 | 8.0 | 0.00 | 0.00 | 0.00 | 89 | 1013.0 |
| 20260831104604 | 58 | 210 | 3.0 | 8.0 | 0.00 | 0.00 | 0.00 | 89 | 1013.0 |
| 20260831104055 | 58 | 224 | 2.0 | 8.0 | 0.00 | 0.00 | 0.00 | 89 | 1012.8 |
| 20260831103554 | 58 | 222 | 2.0 | 9.0 | 0.00 | 0.00 | 0.00 | 89 | 1012.8 |
| 20260831103105 | 58 | 223 | 4.0 | 9.0 | 0.00 | 0.00 | 0.00 | 89 | 1012.9 |
| 20260831102555 | 58 | 146 | 4.0 | 9.0 | 0.00 | 0.00 | 0.00 | 89 | 1012.8 |
| 20260831102055 | 58 | 218 | 2.0 | 11.0 | 0.00 | 0.00 | 0.00 | 89 | 1012.8 |
| 20260831101606 | 58 | 190 | 4.0 | 11.0 | 0.00 | 0.00 | 0.00 | 89 | 1012.8 |
| 20260831101055 | 58 | 150 | 3.0 | 9.0 | 0.00 | 0.00 | 0.00 | 89 | 1012.7 |
| 20260831100555 | 58 | 203 | 2.0 | 12.0 | 0.00 | 0.00 | 0.00 | 89 | 1012.7 |
| 20260831100127 | 58 | 170 | 5.0 | 12.0 | 0.00 | 0.00 | 0.00 | 89 | 1012.8 |
| 20260831095557 | 58 | 180 | 2.0 | 7.0 | 0.00 | 0.00 | 0.00 | 89 | 1012.7 |
| 20260831095054 | 58 | 231 | 3.0 | 9.0 | 0.00 | 0.00 | 0.00 | 89 | 1012.7 |
| 20260831094602 | 58 | 182 | 4.0 | 10.0 | 0.00 | 0.00 | 0.00 | 89 | 1012.7 |
| 20260831094054 | 58 | 193 | 4.0 | 10.0 | 0.00 | 0.00 | 0.00 | 89 | 1012.7 |
| 20260831093554 | 58 | 153 | 3.0 | 10.0 | 0.00 | 0.00 | 0.00 | 89 | 1012.7 |
| 20260831093124 | 58 | 167 | 3.0 | 10.0 | 0.00 | 0.00 | 0.00 | 89 | 1012.7 |
| 20260831092556 | 58 | 173 | 4.0 | 9.0 | 0.00 | 0.00 | 0.00 | 89 | 1012.7 |
| 20260831092051 | 58 | 219 | 2.0 | 9.0 | 0.00 | 0.00 | 0.00 | 89 | 1012.7 |
| 20260831091605 | 58 | 156 | 3.0 | 9.0 | 0.00 | 0.00 | 0.00 | 89 | 1012.7 |
| 20260831091056 | 58 | 0 | 3.0 | 9.0 | 0.00 | 0.00 | 0.00 | 89 | 1012.7 |
| 20260831090555 | 58 | 171 | 2.0 | 10.0 | 0.00 | 0.00 | 0.00 | 89 | 1012.8 |
| 20260831090134 | 58 | 210 | 4.0 | 10.0 | 0.00 | 0.00 | 0.00 | 89 | 1012.8 |
| 20260831085557 | 58 | 233 | 3.0 | 9.0 | 0.00 | 0.00 | 0.00 | 89 | 1012.8 |
| 20260831085055 | 58 | 161 | 3.0 | 9.0 | 0.00 | 0.00 | 0.00 | 89 | 1012.8 |
| 20260831084602 | 58 | 155 | 2.0 | 9.0 | 0.00 | 0.00 | 0.00 | 89 | 1012.8 |
| 20260831084056 | 58 | 188 | 2.0 | 9.0 | 0.00 | 0.00 | 0.00 | 89 | 1012.7 |
| 20260831083555 | 58 | 202 | 1.0 | 7.0 | 0.00 | 0.00 | 0.00 | 89 | 1012.8 |
| 20260831083113 | 58 | 173 | 2.0 | 9.0 | 0.00 | 0.00 | 0.00 | 89 | 1012.9 |
| 20260831082555 | 58 | 173 | 2.0 | 9.0 | 0.00 | 0.00 | 0.00 | 89 | 1013.0 |
| 20260831082056 | 58 | 175 | 5.0 | 9.0 | 0.00 | 0.00 | 0.00 | 89 | 1012.9 |
| 20260831081607 | 58 | 197 | 4.0 | 9.0 | 0.00 | 0.00 | 0.00 | 89 | 1013.0 |
| 20260831081052 | 58 | 180 | 4.0 | 9.0 | 0.00 | 0.00 | 0.00 | 89 | 1013.0 |
| 20260831080556 | 58 | 173 | 3.0 | 10.0 | 0.00 | 0.00 | 0.00 | 89 | 1013.1 |
| 20260831080130 | 58 | 223 | 4.0 | 12.0 | 0.00 | 0.00 | 0.00 | 89 | 1013.1 |
| 20260831075552 | 58 | 201 | 3.0 | 12.0 | 0.00 | 0.00 | 0.00 | 89 | 1013.1 |
| 20260831075052 | 58 | 170 | 2.0 | 6.0 | 0.00 | 0.00 | 0.00 | 89 | 1013.1 |
| 20260831074608 | 58 | 165 | 2.0 | 6.0 | 0.00 | 0.00 | 0.00 | 89 | 1013.1 |
| 20260831074052 | 58 | 189 | 2.0 | 6.0 | 0.00 | 0.00 | 0.00 | 89 | 1013.0 |
| 20260831073552 | 58 | 213 | 2.0 | 7.0 | 0.00 | 0.00 | 0.00 | 89 | 1013.0 |
| 20260831073114 | 58 | 223 | 2.0 | 7.0 | 0.00 | 0.00 | 0.00 | 89 | 1013.0 |
| 20260831072554 | 58 | 230 | 3.0 | 7.0 | 0.00 | 0.00 | 0.00 | 89 | 1013.0 |
| 20260831072052 | 58 | 239 | 3.0 | 8.0 | 0.00 | 0.00 | 0.00 | 89 | 1013.1 |
| 20260831071601 | 58 | 166 | 2.0 | 10.0 | 0.00 | 0.00 | 0.00 | 89 | 1013.1 |
| 20260831071052 | 58 | 220 | 2.0 | 10.0 | 0.00 | 0.00 | 0.00 | 89 | 1013.0 |
| 20260831070552 | 58 | 174 | 2.0 | 8.0 | 0.00 | 0.00 | 0.00 | 89 | 1013.1 |
| 20260831070108 | 58 | 155 | 2.0 | 8.0 | 0.00 | 0.00 | 0.00 | 89 | 1013.1 |
| 20260831065552 | 58 | 196 | 3.0 | 8.0 | 0.00 | 0.00 | 0.00 | 89 | 1013.0 |
| 20260831065055 | 58 | 176 | 3.0 | 8.0 | 0.00 | 0.00 | 0.00 | 89 | 1013.1 |
| 20260831064605 | 58 | 163 | 2.0 | 8.0 | 0.00 | 0.00 | 0.00 | 89 | 1013.2 |
| 20260831064051 | 58 | 182 | 2.0 | 9.0 | 0.00 | 0.00 | 0.00 | 89 | 1013.2 |
| 20260831063555 | 58 | 225 | 2.0 | 9.0 | 0.00 | 0.00 | 0.00 | 89 | 1013.1 |
| 20260831063114 | 58 | 215 | 3.0 | 7.0 | 0.00 | 0.00 | 0.00 | 89 | 1013.2 |
| 20260831062553 | 58 | 157 | 2.0 | 8.0 | 0.00 | 0.00 | 0.00 | 89 | 1013.1 |
| 20260831062053 | 58 | 165 | 2.0 | 8.0 | 0.00 | 0.00 | 0.00 | 89 | 1013.2 |
| 20260831061602 | 58 | 124 | 3.0 | 7.0 | 0.00 | 0.00 | 0.00 | 89 | 1013.2 |
| 20260831061053 | 58 | 163 | 4.0 | 7.0 | 0.00 | 0.00 | 0.00 | 89 | 1013.2 |
| 20260831060553 | 58 | 145 | 2.0 | 7.0 | 0.00 | 0.00 | 0.00 | 89 | 1013.1 |
| 20260831060112 | 58 | 157 | 3.0 | 8.0 | 0.00 | 0.00 | 0.00 | 89 | 1013.2 |
| 20260831055555 | 58 | 229 | 4.0 | 8.0 | 0.00 | 0.00 | 0.00 | 89 | 1013.1 |
| 20260831055052 | 58 | 170 | 2.0 | 7.0 | 0.00 | 0.00 | 0.00 | 90 | 1013.0 |
| 20260831054611 | 58 | 165 | 3.0 | 7.0 | 0.00 | 0.00 | 0.00 | 90 | 1013.0 |
| 20260831054055 | 58 | 167 | 1.0 | 7.0 | 0.00 | 0.00 | 0.00 | 90 | 1013.0 |
| 20260831053552 | 58 | 174 | 3.0 | 6.0 | 0.00 | 0.00 | 0.00 | 90 | 1013.0 |
| 20260831053132 | 58 | 174 | 2.0 | 6.0 | 0.00 | 0.00 | 0.00 | 90 | 1013.0 |
| 20260831052555 | 58 | 219 | 0.0 | 5.0 | 0.00 | 0.00 | 0.00 | 90 | 1013.1 |
| 20260831052055 | 58 | 219 | 2.0 | 5.0 | 0.00 | 0.00 | 0.00 | 90 | 1013.0 |
| 20260831051600 | 58 | 0 | 2.0 | 7.0 | 0.00 | 0.00 | 0.00 | 90 | 1013.1 |
| 20260831051052 | 58 | 222 | 2.0 | 7.0 | 0.00 | 0.00 | 0.00 | 91 | 1013.2 |
| 20260831050552 | 58 | 144 | 1.0 | 6.0 | 0.00 | 0.00 | 0.00 | 91 | 1013.2 |
| 20260831050110 | 58 | 0 | 2.0 | 6.0 | 0.00 | 0.00 | 0.00 | 91 | 1013.2 |
| 20260831045553 | 58 | 161 | 2.0 | 6.0 | 0.00 | 0.00 | 0.00 | 91 | 1013.3 |
| 20260831045053 | 58 | 201 | 0.0 | 3.0 | 0.00 | 0.00 | 0.00 | 91 | 1013.2 |
| 20260831044645 | 58 | 218 | 1.0 | 5.0 | 0.00 | 0.00 | 0.00 | 91 | 1013.2 |
| 20260831044053 | 58 | 0 | 0.0 | 5.0 | 0.00 | 0.00 | 0.00 | 91 | 1013.2 |
| 20260831043555 | 58 | 223 | 1.0 | 6.0 | 0.00 | 0.00 | 0.00 | 91 | 1013.3 |
| 20260831043110 | 58 | 242 | 1.0 | 6.0 | 0.00 | 0.00 | 0.00 | 91 | 1013.3 |
| 20260831042555 | 58 | 215 | 1.0 | 4.0 | 0.00 | 0.00 | 0.00 | 91 | 1013.2 |
| 20260831042053 | 57 | 224 | 1.0 | 4.0 | 0.00 | 0.00 | 0.00 | 92 | 1013.2 |
| 20260831041614 | 57 | 0 | 0.0 | 3.0 | 0.00 | 0.00 | 0.00 | 91 | 1013.2 |
| 20260831041053 | 57 | 231 | 1.0 | 3.0 | 0.00 | 0.00 | 0.00 | 92 | 1013.0 |
| 20260831040553 | 57 | 0 | 0.0 | 4.0 | 0.00 | 0.00 | 0.00 | 91 | 1013.0 |
| 20260831040106 | 57 | 0 | 0.0 | 4.0 | 0.00 | 0.00 | 0.00 | 91 | 1012.9 |
| 20260831035553 | 57 | 228 | 1.0 | 5.0 | 0.00 | 0.00 | 0.00 | 91 | 1013.0 |
| 20260831035055 | 57 | 277 | 1.0 | 5.0 | 0.00 | 0.00 | 0.00 | 91 | 1013.0 |
| 20260831034610 | 57 | 229 | 1.0 | 5.0 | 0.00 | 0.00 | 0.00 | 91 | 1012.9 |
| 20260831034055 | 57 | 0 | 0.0 | 5.0 | 0.00 | 0.00 | 0.00 | 91 | 1013.0 |
| 20260831033552 | 57 | 209 | 1.0 | 7.0 | 0.00 | 0.00 | 0.00 | 91 | 1012.9 |
| 20260831033109 | 57 | 0 | 1.0 | 8.0 | 0.00 | 0.00 | 0.00 | 91 | 1013.0 |
| 20260831032552 | 57 | 291 | 2.0 | 8.0 | 0.00 | 0.00 | 0.00 | 91 | 1012.9 |
| 20260831032052 | 57 | 282 | 2.0 | 8.0 | 0.00 | 0.00 | 0.00 | 91 | 1012.9 |
| 20260831031600 | 57 | 234 | 1.0 | 5.0 | 0.00 | 0.00 | 0.00 | 91 | 1012.9 |
| 20260831031052 | 57 | 223 | 0.0 | 6.0 | 0.00 | 0.00 | 0.00 | 91 | 1012.8 |
| 20260831030556 | 57 | 208 | 0.0 | 6.0 | 0.00 | 0.00 | 0.00 | 91 | 1012.8 |
| 20260831030104 | 57 | 212 | 1.0 | 3.0 | 0.00 | 0.00 | 0.00 | 91 | 1012.7 |
| 20260831025557 | 57 | 0 | 0.0 | 4.0 | 0.00 | 0.00 | 0.00 | 90 | 1012.8 |
| 20260831025053 | 57 | 290 | 1.0 | 5.0 | 0.00 | 0.00 | 0.00 | 90 | 1012.6 |
| 20260831024602 | 57 | 0 | 0.0 | 5.0 | 0.00 | 0.00 | 0.00 | 90 | 1012.6 |
| 20260831024055 | 58 | 230 | 0.0 | 4.0 | 0.00 | 0.00 | 0.00 | 90 | 1012.6 |
| 20260831023552 | 58 | 234 | 0.0 | 4.0 | 0.00 | 0.00 | 0.00 | 90 | 1012.7 |
| 20260831023111 | 58 | 0 | 0.0 | 8.0 | 0.00 | 0.00 | 0.00 | 89 | 1012.7 |
| 20260831022555 | 58 | 302 | 1.0 | 8.0 | 0.00 | 0.00 | 0.00 | 89 | 1012.5 |
| 20260831022055 | 58 | 0 | 1.0 | 8.0 | 0.00 | 0.00 | 0.00 | 88 | 1012.6 |
| 20260831021606 | 59 | 0 | 1.0 | 6.0 | 0.00 | 0.00 | 0.00 | 88 | 1012.6 |
| 20260831021059 | 59 | 0 | 0.0 | 4.0 | 0.00 | 0.00 | 0.00 | 88 | 1012.6 |
| 20260831020555 | 59 | 294 | 1.0 | 8.0 | 0.00 | 0.00 | 0.00 | 88 | 1012.7 |
| 20260831020104 | 60 | 0 | 2.0 | 8.0 | 0.00 | 0.00 | 0.00 | 87 | 1012.7 |
| 20260831015556 | 60 | 288 | 1.0 | 8.0 | 0.00 | 0.00 | 0.00 | 87 | 1012.7 |
| 20260831015052 | 60 | 254 | 1.0 | 7.0 | 0.00 | 0.00 | 0.00 | 87 | 1012.7 |
| 20260831014605 | 60 | 0 | 1.0 | 8.0 | 0.00 | 0.00 | 0.00 | 87 | 1012.7 |
| 20260831014053 | 60 | 0 | 1.0 | 8.0 | 0.00 | 0.00 | 0.00 | 87 | 1012.6 |
| 20260831013552 | 60 | 0 | 1.0 | 8.0 | 0.00 | 0.00 | 0.00 | 87 | 1012.6 |
| 20260831013107 | 60 | 0 | 3.0 | 8.0 | 0.00 | 0.00 | 0.00 | 87 | 1012.6 |
| 20260831012555 | 60 | 321 | 0.0 | 8.0 | 0.00 | 0.00 | 0.00 | 87 | 1012.7 |
| 20260831012052 | 61 | 297 | 2.0 | 9.0 | 0.00 | 0.00 | 0.00 | 86 | 1012.7 |
| 20260831011603 | 61 | 226 | 1.0 | 9.0 | 0.00 | 0.00 | 0.00 | 86 | 1012.7 |
| 20260831011052 | 61 | 329 | 1.0 | 7.0 | 0.00 | 0.00 | 0.00 | 86 | 1012.7 |
| 20260831010552 | 61 | 274 | 1.0 | 7.0 | 0.00 | 0.00 | 0.00 | 86 | 1012.7 |
| 20260831010119 | 61 | 309 | 1.0 | 9.0 | 0.00 | 0.00 | 0.00 | 85 | 1012.8 |
| 20260831005553 | 61 | 0 | 2.0 | 9.0 | 0.00 | 0.00 | 0.00 | 85 | 1012.8 |
| 20260831005056 | 61 | 202 | 1.0 | 9.0 | 0.00 | 0.00 | 0.00 | 85 | 1012.9 |
| 20260831004617 | 61 | 271 | 2.0 | 9.0 | 0.00 | 0.00 | 0.00 | 85 | 1012.9 |
| 20260831004052 | 62 | 0 | 1.0 | 7.0 | 0.00 | 0.00 | 0.00 | 84 | 1012.9 |
| 20260831003556 | 62 | 297 | 1.0 | 9.0 | 0.00 | 0.00 | 0.00 | 84 | 1012.9 |
| 20260831003114 | 62 | 239 | 3.0 | 9.0 | 0.00 | 0.00 | 0.00 | 83 | 1012.9 |
| 20260831002552 | 63 | 280 | 2.0 | 7.0 | 0.00 | 0.00 | 0.00 | 83 | 1012.8 |
| 20260831002054 | 63 | 222 | 2.0 | 7.0 | 0.00 | 0.00 | 0.00 | 83 | 1012.9 |
| 20260831001604 | 63 | 257 | 2.0 | 11.0 | 0.00 | 0.00 | 0.00 | 84 | 1013.0 |
| 20260831001052 | 62 | 207 | 2.0 | 11.0 | 0.00 | 0.00 | 0.00 | 84 | 1013.0 |
| 20260831000555 | 62 | 209 | 2.0 | 10.0 | 0.00 | 0.00 | 0.00 | 83 | 1013.0 |
| 20260831000111 | 62 | 262 | 2.0 | 10.0 | 0.00 | 0.00 | 0.00 | 84 | 1013.0 |
| 20260830235552 | 62 | 235 | 2.0 | 10.0 | 0.00 | 0.00 | 0.00 | 84 | 1013.0 |
| 20260830235055 | 62 | 274 | 3.0 | 11.0 | 0.00 | 0.00 | 0.00 | 83 | 1013.0 |
| 20260830234626 | 62 | 225 | 3.0 | 11.0 | 0.00 | 0.00 | 0.00 | 83 | 1013.0 |
| 20260830234051 | 63 | 225 | 3.0 | 12.0 | 0.00 | 0.00 | 0.00 | 82 | 1013.1 |
| 20260830233554 | 63 | 252 | 3.0 | 15.0 | 0.00 | 0.00 | 0.00 | 82 | 1013.1 |
| 20260830233106 | 63 | 207 | 3.0 | 15.0 | 0.00 | 0.00 | 0.00 | 83 | 1013.1 |
| 20260830232552 | 63 | 281 | 4.0 | 15.0 | 0.00 | 0.00 | 0.00 | 82 | 1013.1 |
| 20260830232052 | 63 | 243 | 2.0 | 11.0 | 0.00 | 0.00 | 0.00 | 82 | 1013.1 |
| 20260830231610 | 63 | 267 | 4.0 | 12.0 | 0.00 | 0.00 | 0.00 | 82 | 1013.2 |
| 20260830231051 | 63 | 250 | 3.0 | 12.0 | 0.00 | 0.00 | 0.00 | 82 | 1013.1 |
| 20260830230555 | 64 | 248 | 3.0 | 13.0 | 0.00 | 0.00 | 0.00 | 81 | 1013.2 |
| 20260830230100 | 64 | 244 | 3.0 | 13.0 | 0.00 | 0.00 | 0.00 | 81 | 1013.1 |
| 20260830225555 | 64 | 302 | 2.0 | 9.0 | 0.00 | 0.00 | 0.00 | 80 | 1013.2 |
| 20260830225052 | 64 | 271 | 3.0 | 10.0 | 0.00 | 0.00 | 0.00 | 80 | 1013.2 |
| 20260830224604 | 64 | 211 | 3.0 | 10.0 | 0.00 | 0.00 | 0.00 | 80 | 1013.2 |
| 20260830224052 | 65 | 198 | 3.0 | 10.0 | 0.00 | 0.00 | 0.00 | 79 | 1013.3 |